Abbotsford, British Columbia

9:35 AM PDT on April 26, 2017 (GMT -0700)
Abbotsford

Weather History for CYXX - August, 2013

Change the Weather History Date:

Tuesday, August 27, 2013

  Actual Average Record
Temperature  
Mean Temperature 68 °F -  
Max Temperature 75 °F 70 °F 86 °F (2006)
Min Temperature 60 °F 48 °F 46 °F (2007)
Cooling Degree Days 2    
Growing Degree Days 18 (Base 50)    
Moisture  
Dew Point 58 °F    
Average Humidity 73    
Maximum Humidity 94    
Minimum Humidity 46    
Precipitation  
Precipitation 0.08 in 0.11 in - ()
Sea Level Pressure  
Sea Level Pressure 29.89 in    
Wind  
Wind Speed 6 mph ()    
Max Wind Speed 17 mph    
Max Gust Speed 22 mph    
Visibility 13.4 miles    
Events Rain    
Averages and records for this station are not official NWS values.
T = Trace of Precipitation, MM = Missing Value Source: Averaged Metar Reports

Daily Weather History Graph

Daily Weather History Graph

Search for Another Location

Airport or City:

Trip Planner

Search our weather history database for the weather conditions in past years. The results will help you decide how hot, cold, wet, or windy it might be!

Date:

Astronomy

Aug. 27, 2013 Rise Set
Actual Time 6:19 AM PDT 8:01 PM PDT
Civil Twilight 5:45 AM PDT 8:34 PM PDT
Nautical Twilight 5:04 AM PDT 9:15 PM PDT
Astronomical Twilight 4:19 AM PDT 10:00 PM PDT
Moon 11:18 PM PDT (8/27) 2:01 PM PDT (8/27)
Length of Visible Light 14h 48m
Length of Day
13h 41m
Waning Gibbous, 56% of the Moon is Illuminated
Aug 27
Waning Gibbous
Aug 28
Last Quarter
Sep 5
New
Sep 12
First Quarter
Sep 19
Full

Hourly Weather History & Observations

Time (PDT) Temp. Dew Point Humidity Pressure Visibility Wind Dir Wind Speed Gust Speed Precip Events Conditions
12:00 AM 66.2 °F 55.4 °F 68% 29.94 in 15.0 mi South 10.4 mph - N/A   Overcast
1:00 AM 66.2 °F 55.4 °F 68% 29.94 in 15.0 mi South 13.8 mph 21.9 mph N/A   Overcast
2:00 AM 64.4 °F 55.4 °F 73% 29.94 in 15.0 mi SW 9.2 mph - N/A   Overcast
3:00 AM 62.6 °F 55.4 °F 77% 29.94 in 15.0 mi West 4.6 mph - N/A   Overcast
4:00 AM 62.6 °F 55.4 °F 77% 29.93 in 15.0 mi Variable 2.3 mph - N/A   Overcast
5:00 AM 61 °F 56 °F 80% 29.93 in 15 mi NNE 4.6 mph - -   Overcast
5:00 AM 60.8 °F 57.2 °F 88% 29.93 in 15.0 mi NNE 3.5 mph - N/A   Overcast
6:00 AM 62.6 °F 57.2 °F 82% 29.93 in 25.0 mi North 3.5 mph - N/A   Overcast
7:00 AM 60.8 °F 57.2 °F 88% 29.94 in 25.0 mi East 3.5 mph - N/A   Overcast
8:00 AM 60.8 °F 59.0 °F 94% 29.94 in 25.0 mi Calm Calm - N/A   Overcast
9:00 AM 64.4 °F 59.0 °F 83% 29.95 in 25.0 mi East 3.5 mph - N/A   Mostly Cloudy
10:00 AM 66.2 °F 59.0 °F 78% 29.94 in 25.0 mi East 4.6 mph - N/A   Mostly Cloudy
11:00 AM 70 °F 58 °F 56% 29.94 in 25 mi NNE 3.5 mph - -   Scattered Clouds
11:00 AM 69.8 °F 57.2 °F 64% 29.94 in 25.0 mi NE 5.8 mph - N/A   Mostly Cloudy
12:00 PM 69.8 °F 57.2 °F 64% 29.92 in 25.0 mi NNW 3.5 mph - N/A   Overcast
1:00 PM 71.6 °F 57.2 °F 60% 29.91 in 25.0 mi NNE 3.5 mph - N/A   Overcast
2:00 PM 73.4 °F 57.2 °F 57% 29.90 in 25.0 mi Calm Calm - N/A   Mostly Cloudy
3:00 PM 75.2 °F 59.0 °F 57% 29.88 in 25.0 mi NNE 5.8 mph - N/A   Mostly Cloudy
4:00 PM 75.2 °F 59.0 °F 57% 29.87 in 25.0 mi North 6.9 mph - N/A   Mostly Cloudy
5:00 PM 75 °F 58 °F 46% 29.85 in 25 mi North 5.8 mph - -   Partly Cloudy
5:00 PM 75.2 °F 57.2 °F 53% 29.85 in 25.0 mi NNE 5.8 mph - N/A   Mostly Cloudy
6:00 PM 75.2 °F 59.0 °F 57% 29.83 in 25.0 mi NE 5.8 mph - N/A   Mostly Cloudy
7:00 PM 73.4 °F 59.0 °F 61% 29.81 in 20.0 mi NE 5.8 mph - N/A   Overcast
7:17 PM 71.6 °F 59.0 °F 64% 29.81 in 20.0 mi East 4.6 mph - N/A Rain Light Rain Showers
8:00 PM 69.8 °F 60.8 °F 73% 29.81 in 25.0 mi West 4.6 mph - N/A Rain Light Rain Showers
9:00 PM 69.8 °F 59.0 °F 68% 29.81 in 15.0 mi ENE 4.6 mph - N/A Rain Light Rain Showers
10:00 PM 66.2 °F 62.6 °F 88% 29.82 in 15.0 mi South 4.6 mph - N/A Rain Light Rain
10:27 PM 64.4 °F 60.8 °F 88% 29.85 in 10.0 mi SW 17.3 mph - N/A Rain Rain
10:42 PM 62.6 °F 60.8 °F 94% 29.85 in 10.0 mi SSW 11.5 mph - N/A Rain Light Rain
11:00 PM 62 °F 61 °F 94% 29.85 in 10 mi SW 8.1 mph - - Rain Light Rain
11:00 PM 62.6 °F 60.8 °F 94% 29.85 in 5.0 mi SSW 8.1 mph - N/A Rain Light Rain
11:41 PM 60.8 °F 59.0 °F 94% 29.86 in 5.0 mi SSE 4.6 mph - N/A Rain Light Rain